GSAT0215 (GALILEO 19)

Last updated on Sat Sep 05 2026 00:02:48 GMT+0000 (Coordinated Universal Time)

1 43055U 17079A 26247.20398876 .00000050 00000+0 00000+0 0 9998 2 43055 55.0563 219.3328 0003465 278.6615 81.2777 1.70473856 54332
UTC large
Height (km)
Speed (km/s)
/
Latitude / Longitude
Inclination (degrees)
Orbital Period (minutes)
Azimuth
Elevation
Range (km)
Doppler Factor

Next 0 passes for location: London (51.5072 / 0.1276)

No passes found over London.
GSAT0215 (GALILEO 19)